CW8261 Weather Reports


time (UTC)temp
C
wind
direction
speed
KPH
gust
KPH
rain 1hr
cm
rain 24hr
cm
rain mn
cm
humidity
%
barometer
mb
20260906022518 29 16 1.6 4.8 0.00 0.00 0.00 66 1012.9
20260906021518 29 26 3.2 6.4 0.00 0.00 0.00 65 1012.8
20260906020518 29 11 4.8 6.4 0.00 0.00 0.00 64 1012.6
20260906015518 29 11 4.8 8.0 0.00 0.00 0.00 64 1012.5
20260906014521 29 2 3.2 4.8 0.00 0.00 0.00 64 1012.4
20260906013518 30 19 1.6 3.2 0.00 0.00 0.00 62 1012.3
20260906012519 30 30 3.2 4.8 0.00 0.00 0.00 61 1012.2
20260906011520 30 8 1.6 3.2 0.00 0.00 0.00 61 1012.2
20260906010516 30 28 3.2 4.8 0.00 0.00 0.00 60 1012.0
20260906005521 31 10 3.2 4.8 0.00 0.00 0.00 58 1011.8
20260906004520 31 353 4.8 8.0 0.00 0.00 0.00 57 1011.8
20260906003517 31 350 6.4 9.7 0.00 0.00 0.00 56 1011.8
20260906002537 31 345 16.1 24.1 0.00 0.00 0.00 55 1011.8
20260906001539 32 344 17.7 24.1 0.00 0.00 0.00 55 1011.9
20260906000518 32 345 17.7 25.7 0.00 0.00 0.00 54 1011.9
20260905235518 32 344 17.7 25.7 0.00 0.00 0.00 53 1011.9
20260905234518 33 344 17.7 25.7 0.00 0.00 0.00 52 1011.9
20260905233518 33 345 17.7 25.7 0.00 0.00 0.00 52 1011.9
20260905232538 34 346 17.7 24.1 0.00 0.00 0.00 51 1011.9
20260905231518 34 349 17.7 24.1 0.00 0.00 0.00 50 1011.8
20260905230519 35 313 4.8 6.4 0.00 0.00 0.00 48 1011.6
20260905225519 35 314 4.8 6.4 0.00 0.00 0.00 46 1011.6
20260905224520 35 313 4.8 6.4 0.00 0.00 0.00 44 1011.5
20260905223601 36 314 4.8 6.4 0.00 0.00 0.00 43 1011.6
20260905222520 36 313 4.8 6.4 0.00 0.00 0.00 41 1011.7
20260905221520 36 313 4.8 6.4 0.00 0.00 0.00 42 1011.6
20260905220517 35 314 4.8 6.4 0.00 0.00 0.00 45 1011.6
20260905215517 35 314 4.8 6.4 0.00 0.00 0.00 47 1011.6
20260905214520 35 313 4.8 6.4 0.00 0.00 0.00 48 1011.5
20260905213521 35 313 4.8 6.4 0.00 0.00 0.00 49 1011.6
20260905212538 36 313 4.8 6.4 0.00 0.00 0.00 48 1011.5
20260905211517 36 313 4.8 6.4 0.00 0.00 0.00 42 1011.6
20260905210519 36 313 4.8 6.4 0.00 0.00 0.00 41 1011.5
20260905205522 37 313 4.8 6.4 0.00 0.00 0.00 41 1011.5
20260905204518 37 313 4.8 6.4 0.00 0.00 0.00 41 1011.7
20260905203519 37 315 3.2 6.4 0.00 0.00 0.00 41 1011.6
20260905202518 37 313 6.4 8.0 0.00 0.00 0.00 41 1011.8
20260905201518 37 311 4.8 8.0 0.00 0.00 0.00 40 1011.9
20260905200521 37 313 4.8 6.4 0.00 0.00 0.00 40 1011.9
20260905195519 37 313 4.8 6.4 0.00 0.00 0.00 40 1012.0
20260905194521 37 313 4.8 6.4 0.00 0.00 0.00 41 1012.2
20260905193519 37 308 4.8 8.0 0.00 0.00 0.00 40 1012.1
20260905192519 36 307 6.4 9.7 0.00 0.00 0.00 42 1012.4
20260905191537 36 308 6.4 8.0 0.00 0.00 0.00 40 1012.5
20260905190520 36 308 6.4 9.7 0.00 0.00 0.00 42 1012.6
20260905185520 36 311 4.8 8.0 0.00 0.00 0.00 43 1012.7
20260905184517 36 313 3.2 6.4 0.00 0.00 0.00 44 1012.8
20260905183519 36 308 3.2 4.8 0.00 0.00 0.00 45 1013.0
20260905182517 36 308 3.2 4.8 0.00 0.00 0.00 45 1013.1
20260905181521 36 309 3.2 4.8 0.00 0.00 0.00 47 1013.2
20260905180518 36 311 3.2 4.8 0.00 0.00 0.00 47 1013.2
20260905175519 36 312 3.2 4.8 0.00 0.00 0.00 47 1013.3
20260905174518 35 135 3.2 8.0 0.00 0.00 0.00 48 1013.4
20260905173520 35 136 3.2 8.0 0.00 0.00 0.00 50 1013.5
20260905172518 35 137 3.2 8.0 0.00 0.00 0.00 50 1013.5
20260905171519 35 134 3.2 9.7 0.00 0.00 0.00 50 1013.6
20260905170520 35 333 4.8 12.9 0.00 0.00 0.00 52 1013.8
20260905165518 34 356 4.8 14.5 0.00 0.00 0.00 51 1014.0
20260905164520 34 340 8.0 16.1 0.00 0.00 0.00 53 1014.2
20260905163519 33 338 6.4 14.5 0.00 0.00 0.00 54 1014.2
20260905162519 33 335 6.4 14.5 0.00 0.00 0.00 54 1014.3
20260905161519 33 322 4.8 12.9 0.00 0.00 0.00 57 1014.4
20260905160517 33 342 8.0 16.1 0.00 0.00 0.00 58 1014.5
20260905155518 33 315 3.2 16.1 0.00 0.00 0.00 58 1014.5
20260905154520 32 349 6.4 12.9 0.00 0.00 0.00 58 1014.5
20260905153520 32 315 4.8 16.1 0.00 0.00 0.00 59 1014.5
20260905152517 32 356 8.0 14.5 0.00 0.00 0.00 59 1014.5
20260905151539 31 345 3.2 8.0 0.00 0.00 0.00 62 1014.5
20260905150519 31 350 11.3 16.1 0.00 0.00 0.00 62 1014.5
20260905145542 31 342 6.4 12.9 0.00 0.00 0.00 62 1014.5
20260905144520 31 293 3.2 8.0 0.00 0.00 0.00 64 1014.5
20260905143518 31 309 3.2 11.3 0.00 0.00 0.00 64 1014.5
20260905142519 30 341 4.8 9.7 0.00 0.00 0.00 66 1014.6
20260905141518 31 289 1.6 4.8 0.00 0.00 0.00 68 1014.7
20260905140519 30 277 1.6 3.2 0.00 0.00 0.00 68 1014.7
20260905135519 30 237 1.6 3.2 0.00 0.00 0.00 71 1014.7
20260905134519 30 221 1.6 4.8 0.00 0.00 0.00 70 1014.8
20260905133519 29 205 1.6 3.2 0.00 0.00 0.00 71 1014.7
20260905132517 28 230 1.6 4.8 0.00 0.00 0.00 75 1014.5
20260905131520 27 198 0.0 3.2 0.00 0.00 0.00 81 1014.2
20260905130521 26 185 3.2 4.8 0.00 0.00 0.00 83 1014.2
20260905125520 25 183 1.6 3.2 0.00 0.00 0.00 86 1014.2
20260905124517 25 173 1.6 3.2 0.00 0.00 0.00 88 1014.1
20260905123517 24 173 3.2 3.2 0.00 0.00 0.00 90 1014.0
20260905122520 24 167 0.0 3.2 0.00 0.00 0.00 92 1014.0
20260905121521 23 162 1.6 3.2 0.00 0.00 0.00 93 1013.8
20260905120527 23 177 1.6 3.2 0.00 0.00 0.00 93 1013.7
20260905115527 23 203 1.6 3.2 0.00 0.00 0.00 93 1013.5
20260905114548 23 191 1.6 3.2 0.00 0.00 0.00 93 1013.5
20260905113548 23 185 3.2 3.2 0.00 0.00 0.00 93 1013.6
20260905112528 23 182 1.6 1.6 0.00 0.00 0.00 93 1013.6
20260905111529 23 179 1.6 3.2 0.00 0.00 0.00 93 1013.5
20260905110529 23 169 1.6 3.2 0.00 0.00 0.00 92 1013.4
20260905105529 23 167 1.6 3.2 0.00 0.00 0.00 92 1013.4
20260905104529 23 192 0.0 0.0 0.00 0.00 0.00 91 1013.3
20260905103528 23 0.0 0.0 0.00 0.00 0.00 91 1013.3
20260905102528 23 98 0.0 0.0 0.00 0.00 0.00 91 1013.4
20260905101530 23 158 0.0 1.6 0.00 0.00 0.00 91 1013.4
20260905100529 23 165 1.6 3.2 0.00 0.00 0.00 91 1013.4
20260905095529 23 177 0.0 1.6 0.00 0.00 0.00 90 1013.4
20260905094529 23 0.0 0.0 0.00 0.00 0.00 90 1013.3
20260905093529 23 85 0.0 0.0 0.00 0.00 0.00 90 1013.3
20260905092529 23 157 0.0 1.6 0.00 0.00 0.00 89 1013.2
20260905091530 23 185 0.0 1.6 0.00 0.00 0.00 89 1013.3
20260905090530 23 181 0.0 1.6 0.00 0.00 0.00 89 1013.4
20260905085530 23 0.0 0.0 0.00 0.00 0.00 88 1013.3
20260905084530 24 321 0.0 1.6 0.00 0.00 0.00 88 1013.3
20260905083530 24 44 0.0 1.6 0.00 0.00 0.00 88 1013.4
20260905082530 24 45 0.0 1.6 0.00 0.00 0.00 88 1013.3
20260905081531 24 120 0.0 1.6 0.00 0.00 0.00 88 1013.3
20260905080552 24 182 0.0 1.6 0.00 0.00 0.00 87 1013.4
20260905075531 24 170 1.6 3.2 0.00 0.00 0.00 87 1013.5
20260905074531 25 184 1.6 3.2 0.00 0.00 0.00 86 1013.5
20260905073551 25 0.0 0.0 0.00 0.00 0.00 85 1013.5
20260905072533 25 29 0.0 1.6 0.00 0.00 0.00 85 1013.6
20260905071533 25 335 1.6 3.2 0.00 0.00 0.00 85 1013.6
20260905070533 25 160 0.0 1.6 0.00 0.00 0.00 84 1013.7
20260905065517 25 163 0.0 1.6 0.00 0.00 0.00 84 1013.7
20260905064518 25 239 0.0 3.2 0.00 0.00 0.00 83 1013.7
20260905063517 25 0.0 0.0 0.00 0.00 0.00 81 1013.8
20260905062532 26 33 0.0 1.6 0.00 0.00 0.00 81 1013.9
20260905061518 26 182 1.6 3.2 0.00 0.00 0.00 80 1013.9
20260905060518 26 232 0.0 1.6 0.00 0.00 0.00 78 1013.9
20260905055518 26 0.0 0.0 0.00 0.00 0.00 78 1014.0
20260905054520 27 234 0.0 1.6 0.00 0.00 0.00 77 1014.0
20260905053519 27 0.0 0.0 0.00 0.00 0.00 76 1014.1
20260905052519 27 258 0.0 1.6 0.00 0.00 0.00 75 1014.1
20260905051516 27 268 0.0 1.6 0.00 0.00 0.00 73 1014.0
20260905050540 28 234 1.6 3.2 0.00 0.00 0.00 72 1014.0
20260905045520 28 218 1.6 3.2 0.00 0.00 0.00 72 1014.0
20260905044539 28 222 1.6 3.2 0.00 0.00 0.00 71 1014.0
20260905043518 28 219 1.6 3.2 0.00 0.00 0.00 70 1014.0
20260905042517 28 227 1.6 3.2 0.00 0.00 0.00 69 1014.0
20260905041521 28 232 1.6 4.8 0.00 0.00 0.00 69 1014.0
20260905040518 29 222 1.6 3.2 0.00 0.00 0.00 68 1014.1
20260905035538 29 215 1.6 3.2 0.00 0.00 0.00 67 1014.1
20260905034518 29 220 1.6 3.2 0.00 0.00 0.00 66 1014.1
20260905033520 28 215 1.6 3.2 0.00 0.00 0.00 66 1014.1
20260905032519 28 236 1.6 3.2 0.00 0.00 0.00 67 1014.2
20260905031520 28 208 1.6 3.2 0.00 0.00 0.00 68 1014.2
20260905030519 27 219 1.6 3.2 0.00 0.00 0.00 71 1014.1
20260905025519 27 198 1.6 3.2 0.00 0.00 0.00 77 1014.0
20260905024538 27 202 1.6 3.2 0.00 0.00 0.00 79 1014.0
20260905023539 27 205 0.0 1.6 0.00 0.00 0.00 79 1014.0